Location: El Para�so
(10.4896°N, 66.9245°W)
Time: 18:59:48
(UTC+00:00)

Cosmos 1328 Rocket - Pass Details

Date: 08 August 2020
Orbit: 602 x 627 km, 82.5° (Epoch: 01 October)

Event Time Altitude Azimuth Distance (km) Brightness Sun altitude
Rises 23:40:17 0° 9° (N) 2,892 7.1 -12.9°
Reaches altitude 10° 23:42:38 10° 17° (NNE) 1,989 6.2 -13.5°
Maximum altitude 23:46:43 37° 85° (E) 976 4.1 -14.4°
Enters shadow 23:49:12 20° 140° (SE) 1,440 4.9 -15.0°
